Flag for Liberia Weather past 2 weeks in Gbarnga, Liberia

Now
81 °F

Partly sunny.


Feels Like: 86 °F
Forecast: N/A
Wind: 8 mph from South

Location: Roberts Field

Current Time: Jul 5, 2015 at 3:10:46 PM

Latest Report: Jul 5, 2015 at 2:30 PM


Visibility: N/A

Pressure: 29.89 "Hg

Humidity: 84%

Dew point: 75 °F

Location of GbarngaLocation

Historic Weather in Gbarnga — Graph

°F

Gbarnga temperature yesterday

Maximum temperature yesterday: 82 °F (at 2:30 PM)
Minimum temperature yesterday: 77 °F (at 12:30 AM)
Average temperature yesterday: 78 °F

Past Weeks' High & Low Weather Summary

 TemperatureHumidityPressure
High86 °F (Jun 26, 12:30 PM)100% (Jun 23, 4:30 AM)30.12 "Hg (Jun 23, 4:30 AM)
Low73 °F (Jun 24, 4:30 AM)74% (Jun 22, 2:30 PM)29.89 "Hg (Jul 3, 1:30 PM)
Average78 °F90%30.00 "Hg
* Reported Jun 20 4:00 PM — Jul 5 2:00 PM, Gbarnga, Weather by CustomWeather, © 2015

Note: Actual official high and low records may vary slightly from our data, if they occured in-between our weather recording intervals... More about our weather records

Advertising

Gbarnga weather history for previous 24 hours

 ConditionsComfort  
Time TempWeatherWind HumidityBarometerVisibility
2:00 PM
Sun, Jul 5
82 °FPartly sunny.9 mph79%29.89 "HgN/A
1:30 PM81 °FPartly sunny.7 mph84%29.89 "HgN/A
1:00 PM81 °FDrizzle. Partly sunny.7 mph84%29.92 "HgN/A
12:30 PM81 °FDrizzle. Partly sunny.8 mph84%29.92 "Hg6 mi
12:00 PM81 °FPartly sunny.7 mph84%29.92 "HgN/A
11:30 AM79 °FPartly sunny.6 mph94%29.95 "HgN/A
11:00 AM79 °FPartly sunny.7 mph94%29.95 "HgN/A
10:30 AM81 °FPartly sunny.6 mph89%29.95 "HgN/A
10:00 AM79 °FPartly sunny.No wind94%29.95 "HgN/A
9:30 AM79 °FRain. Partly sunny.No wind94%29.95 "HgN/A
9:00 AM77 °FLight rain. Partly sunny.No wind94%29.95 "Hg6 mi
8:30 AM77 °FLight rain. Partly sunny.No wind94%29.92 "Hg6 mi
8:00 AM77 °FPartly sunny.No wind94%29.92 "Hg4 mi
7:30 AM77 °FPassing clouds.No wind94%29.92 "Hg4 mi
7:00 AM77 °FPassing clouds.No wind94%29.92 "Hg4 mi
6:30 AM77 °FPassing clouds.No wind94%29.92 "HgN/A
6:00 AM75 °FPassing clouds.No wind100%29.92 "HgN/A
4:30 AM75 °FPassing clouds.No wind100%29.89 "HgN/A
4:00 AM77 °FPassing clouds.No wind94%29.92 "HgN/A
2:00 AM77 °FPassing clouds.No wind94%29.92 "HgN/A
1:30 AM77 °FPassing clouds.No wind94%29.92 "HgN/A
11:00 PM
Sat, Jul 4
77 °FPassing clouds.No wind94%29.98 "HgN/A
10:30 PM77 °FRain. Passing clouds.No wind94%29.98 "HgN/A
10:00 PM77 °FRain. Passing clouds.No wind94%29.98 "HgN/A
9:30 PM77 °FLight rain. Passing clouds.No wind94%29.95 "Hg6 mi
9:00 PM77 °FLight rain. Passing clouds.No wind94%29.95 "Hg5 mi
8:30 PM77 °FLight rain. Passing clouds.No wind94%29.92 "Hg5 mi
8:00 PM77 °FLight rain. Passing clouds.No wind94%29.92 "Hg4 mi
7:30 PM77 °FLight rain. Partly sunny.6 mph94%29.92 "Hg4 mi
7:00 PM77 °FLight rain. Partly sunny.10 mph94%29.92 "Hg4 mi
6:30 PM79 °FLight rain. Partly sunny.5 mph94%29.92 "Hg5 mi
6:00 PM79 °FLight rain. Partly sunny.9 mph94%29.92 "Hg4 mi
5:30 PM79 °FLight rain. Partly sunny.6 mph94%29.92 "Hg6 mi
5:00 PM79 °FLight rain. Partly sunny.No wind94%29.89 "Hg5 mi
4:00 PM79 °FLight rain. Partly sunny.6 mph94%29.92 "Hg4 mi
3:30 PM79 °FLight rain. Partly sunny.7 mph94%29.92 "Hg4 mi
3:00 PM79 °FLight rain. Partly sunny.5 mph94%29.95 "Hg5 mi
Weather by CustomWeather, © 2015

See weather overviewHow to use our weather pages